OneWeb SL0301

operational
NORAD ID: 49090 Int'l Des: 2021-075 Owner: ONEWEBN Country: UK Constellation: oneweb
LEOCIRCULARPOLARONEWEB_TYPE

About OneWeb SL0301

Description loading...

Live Position

Loading 3D Globe...

Upcoming Passes

Altitude History

Altitude vs Time

uPlot chart will show altitude changes over time

Two-Line Element Set

1 49090U 21075R 25304.30001300 -.00000191 00000-0 -56713-3 0 9996
2 49090 87.8969 36.1230 0001587 114.4191 245.7103 13.12445074204546
Epoch: Oct 31, 2025 • Age: 5 hours

Current Status

Altitude 1215.2 km
Velocity 7.25 km/s
Sub-Earth Point 11.58°N, 0.1°W
Launch Date Aug 21, 2021
Age 4.1 years
Type internet

Technical Details

Classification Payload
Mass 148.00 kg
Dry Mass 140.00 kg
Total Mass 148.00 kg
Length 1.30 m
Diameter 1.00 m
Span 5.00 m
Shape Trapezoid+2 pan
Manufacturer ONEWUS
Bus Type ARROW
Phase Status In Orbit
Owner/State ONEWEBN/UK

Large Constellations

Loading constellations...